Location: Newark
(13.9550°N, 109.0422°E)
Time: 14:44:57
(UTC+00:00)

Hubble Space Telescope - Pass Details

Date: 25 October 2019
Orbit: 536 x 540 km, 28.5° (Epoch: 17 November)

Event Time Altitude Azimuth Distance (km) Brightness Sun altitude
Exits shadow 21:13:40 50° 222° (SW) 681 1.0 -20.7°
Maximum altitude 21:14:37 74° 153° (SSE) 554 0.8 -20.4°
Drops below altitude 10° 21:18:43 10° 68° (ENE) 1,776 4.3 -19.5°
Sets 21:20:59 0° 66° (ENE) 2,665 5.3 -18.9°
